Regional Weather Roundup
Issued by NWS

Home | Current Version | Previous Version | Text Only | Print | Product List | Glossary Off
Versions: 1 2 3 4 5 6 7 8 9 10 11 12 13 14 15 16 17 18 19 20 21 22 23 24 25 26 27 28 29 30 31 32 33 34 35 36 37 38 39 40 41 42 43 44 45 46 47 48 49 50

004
ASUS43 KDTX 230910
RWRMI
MICHIGAN HOURLY REGIONAL WEATHER ROUNDUP
NATIONAL WEATHER SERVICE DETROIT/PONTIAC MI
ISSUED BY NATIONAL WEATHER SERVICE GRAND RAPIDS MI
500 AM EDT WED AUG 23 2017

NOTE: "FAIR" INDICATES FEW OR NO CLOUDS BELOW 12,000 FEET WITH NO
SIGNIFICANT WEATHER AND/OR OBSTRUCTION TO VISIBILITY.

MIZ047>049-052>055-059>063-066>070-074>076-081>083-231000-
SOUTHEAST LOWER MICHIGAN

CITY           SKY/WX    TMP DP  RH WIND       PRES   REMARKS
ADRIAN         CLEAR     56  52  86 W6        29.96S
ALMA           CLEAR     55  52  88 W10       29.93R
ANN ARBOR      CLEAR     52  51  97 SW6       29.93S
BAD AXE        CLEAR     54  52  92 SW3       29.88S
DETROIT CITY   CLEAR     60  53  77 W6        29.92R
DETROIT        CLEAR     58  53  84 SW6       29.93S
FLINT          CLEAR     55  52  89 SW6       29.92S
GROSSE ILE     CLEAR     59  54  82 W5        29.92S
HILLSDALE      CLEAR     57  52  82 W6        29.96S
HOWELL         CLEAR     56  52  88 W6        29.93S

CITY           SKY/WX    TMP DP  RH WIND       PRES   REMARKS
JACKSON        CLEAR     56  52  86 CALM      29.95R
LANSING        CLEAR     59  52  77 W7        29.94S
MASON          MOCLDY    60  54  80 CALM      29.94S
MONROE         PTCLDY    54  52  95 W3        29.93S
MT. CLEMENS    PTCLDY    59  54  82 W7        29.89S
PONTIAC        CLEAR     59  53  80 W13       29.91S
PORT HOPE        N/A     56  52  86 SW7       29.84S
PORT HURON     CLEAR     52  50  93 CALM      29.90S
TRI CITIES     CLEAR     56  54  93 SW7       29.91S
YPSILANTI      CLEAR     56  53  90 W7        29.93S
$$
MIZ043>046-050>051-056>058-064>065-071>073-077>080-231000-
SOUTHWEST LOWER MICHIGAN

CITY           SKY/WX    TMP DP  RH WIND       PRES   REMARKS
BATTLE CREEK   CLEAR     59  54  83 W7        29.96S
BENTON HARBOR  CLEAR     68  54  60 NW9       29.98S
BIG RAPIDS     CLEAR     56  50  79 W6        29.92R
COLDWATER      PTCLDY    56  56  99 SW5       29.97R
HOLLAND        CLEAR     66  51  58 NW6       29.96S
GRAND RAPIDS   CLEAR     59  54  83 W7        29.94S
KALAMAZOO      CLEAR     60  52  74 W6        29.97S
MARSHALL       CLEAR     56  55  95 SW3       29.95S
MOUNT PLEASANT CLEAR     58  53  83 W5        29.90S
MUSKEGON       CLEAR     67  53  61 NW16G23   29.94S
STURGIS        CLEAR     55  53  95 CALM      29.97S
$$
MIZ016>042-231000-
NORTHERN LOWER MICHIGAN

CITY           SKY/WX    TMP DP  RH WIND       PRES   REMARKS
ALPENA         CLEAR     56  53  90 VRB3      29.83S
BEAVER ISLAND  CLOUDY    59  53  79 NW12G17   29.87R
BELLAIRE       CLOUDY    62  53  73 CALM      29.87S
CADILLAC       PTCLDY    55  51  85 W5        29.90S
CHARLEVOIX     PTCLDY    61  54  77 NW15      29.89R
GAYLORD        CLEAR     53  49  86 W7        29.86S
HOUGHTON LAKE  CLEAR     59  52  77 W9        29.89S
MANISTEE       PTCLDY    63  54  72 NW12      29.91R
OSCODA         CLOUDY    57  52  83 SW9       29.85S
PELLSTON       PTCLDY    59  53  80 NW9       29.84S
TRAVERSE CITY  CLEAR     61  53  75 W9        29.87R
LUDINGTON      PTCLDY    63  53  71 NW7       29.92R
$$
MIZ007>008-015-231000-
EASTERN UPPER MICHIGAN

CITY           SKY/WX    TMP DP  RH WIND       PRES   REMARKS
KINROSS        CLOUDY    53  52  96 W8        29.81R
MACKINAC ISLAN CLEAR     57  53  88 W13       29.83R
NEWBERRY       PTCLDY    52  51  97 W5        29.84R
S. S. MARIE    PTCLDY    59  53  80 W12       29.78R
$$
MIZ004>006-011>014-085-231000-
CENTRAL UPPER MICHIGAN

CITY           SKY/WX    TMP DP  RH WIND       PRES   REMARKS
MANISTIQUE     CLEAR     51  46  82 W6        29.86S
ESCANABA       CLEAR     53  52  96 W5        29.90R
MENOMINEE      CLEAR     55  52  89 W5        29.94R
SAWYER-GWINN   CLEAR     50  48  93 CALM      29.91R
$$
MIZ001>003-009>011-084-231000-
WESTERN UPPER MICHIGAN

CITY           SKY/WX    TMP DP  RH WIND       PRES   REMARKS
IRON MOUNTAIN  CLEAR     54  50  86 NW8       29.92R
HOUGHTON       MOCLDY    54  47  77 NW9       29.92R
COPPER HARBOR    N/A     57  49  74 N17       29.89R
IRONWOOD       MOCLDY    55  53  93 W7        29.99R
$$

ABBREVIATIONS USED IN REMARKS
   TC - TEMPERATURE IN CELSIUS
  WCI - WIND CHILL INDEX
   HX - HEAT INDEX
  VSB - VISIBILITY





USA.gov is the U.S. government's official web portal to all federal, state and local government web resources and services.